Surface/Precipitation History
12/12/2017 21:16  to  12/13/2017 21:16
Change End Date:
Date/Time
(MST)
Sf
Temp Chem Water Layer Surface Precipitation
Sfc Pvt Sub Frz Factor Pct Dpth DpthThk IcePct Cond Salin FI Type Intens Accum Rate
12/13/2017 21:10 Ice Warning 28.8F - - 32F 60 0% - - 100% 1 mhos 0 - None None - -
12/13/2017 21:06 Ice Warning 28.8F - - 32F 65 0% - - 100% 1 mhos 0 - None None - -
12/13/2017 20:56 Ice Warning 28.8F - - 32F 70 0% - - 100% 1 mhos 0 - Yes - - -
12/13/2017 20:55 Ice Warning 28.8F - - 32F 70 0% - - 100% 1 mhos 0 - Yes - - -
12/13/2017 20:46 Ice Warning 28.8F - - 32F 65 0% - - 100% 1 mhos 0 - None None - -
12/13/2017 20:41 Ice Warning 28.9F - - 32F 65 0% - - 100% 1 mhos 0 - Yes - - -
12/13/2017 20:36 Ice Warning 29.1F - - 32F 70 0% - - 100% 1 mhos 0 - Yes - - -
12/13/2017 20:25 Ice Warning 28.9F - - 32F 65 0% - - 100% 1 mhos 0 - Yes - - -
12/13/2017 20:25 Ice Warning 28.9F - - 32F 65 0% - - 100% 1 mhos 0 - Yes - - -
12/13/2017 20:15 Ice Warning 28.9F - - 32F 75 0% - - 100% 1 mhos 0 - Yes - - -
12/13/2017 20:10 Ice Warning 28.9F - - 32F 80 0% - - 100% 1 mhos 0 - Yes - - -
12/13/2017 20:05 Ice Warning 28.9F - - 32F 75 0% - - 100% 1 mhos 0 - None None - -
12/13/2017 19:55 Ice Warning 29.1F - - 32F 80 0% - - 100% 1 mhos 0 - None None - -
12/13/2017 19:55 Ice Warning 29.1F - - 32F 80 0% - - 100% 1 mhos 0 - None None - -
12/13/2017 19:45 Ice Warning 29.1F - - 32F 70 0% - - 100% 1 mhos 0 - Yes - - -
Date/Time
(MST)
Sf
Temp Chem Water Layer Surface Precipitation
Sfc Pvt Sub Frz Factor Pct Dpth DpthThk IcePct Cond Salin FI Type Intens Accum Rate
12/13/2017 19:41 Ice Warning 29.1F - - 32F 75 0% - - 100% 1 mhos 0 - None None - -
12/13/2017 19:35 Ice Warning 29.1F - - 32F 65 0% - - 100% 1 mhos 0 - Yes - - -
12/13/2017 19:25 Ice Warning 29.1F - - 32F 70 0% - - 100% 1 mhos 0 - Yes - - -
12/13/2017 19:15 Ice Warning 29.5F - - 32F 75 0% - - 100% 1 mhos 0 - Yes - - -
12/13/2017 19:10 Ice Warning 29.3F - - 32F 70 0% - - 100% 1 mhos 0 - Yes - - -
12/13/2017 19:05 Ice Warning 29.3F - - 32F 70 0% - - 100% 1 mhos 0 - Yes - - -
12/13/2017 18:55 Ice Warning 29.5F - - 32F 75 0% - - 100% 1 mhos 0 - None None - -
12/13/2017 18:45 Ice Warning 29.5F - - 32F 75 0% - - 100% 1 mhos 0 - Yes - - -
12/13/2017 18:35 Ice Warning 29.8F - - 32F 80 0% - - 100% 1 mhos 0 - None None - -
12/13/2017 18:26 Ice Warning 29.8F - - 32F 95 0% - - 100% 1 mhos 0 - None None - -
12/13/2017 18:25 Ice Warning 29.7F - - 32F 75 0% - - 100% 0 mhos 0 - None None - -
12/13/2017 18:15 Ice Warning 29.8F - - 32F 50 0% - - 100% 0 mhos 0 - Yes - - -
12/13/2017 18:10 Ice Warning 30.0F - - 32F 60 0% - - 100% 0 mhos 0 - Yes - - -
12/13/2017 18:05 Ice Warning 30.0F - - 32F 60 0% - - 100% 0 mhos 0 - Yes - - -
12/13/2017 17:55 Ice Warning 30.0F - - 32F 65 0% - - 100% 0 mhos 0 - None None - -
Date/Time
(MST)
Sf
Temp Chem Water Layer Surface Precipitation
Sfc Pvt Sub Frz Factor Pct Dpth DpthThk IcePct Cond Salin FI Type Intens Accum Rate
12/13/2017 17:54 Ice Warning 30.0F - - 32F 65 0% - - 100% 0 mhos 0 - None None - -
12/13/2017 17:44 Ice Warning 30.0F - - 32F 50 0% - - 100% 0 mhos 0 - None None - -
12/13/2017 17:41 Ice Warning 30.2F - - 32F 55 0% - - 100% 0 mhos 0 - Yes - - -
12/13/2017 17:34 Ice Warning 30.0F - - 32F 55 0% - - 100% 0 mhos 0 - Yes - - -
12/13/2017 17:24 Ice Warning 30.4F - - 32F 55 0% - - 100% 0 mhos 0 - Yes - - -
12/13/2017 17:14 Ice Warning 30.4F - - 32F 55 0% - - 100% 0 mhos 0 - Yes - - -
12/13/2017 17:04 Ice Warning 30.6F - - 32F 60 0% - - 100% 0 mhos 0 - Yes - - -
12/13/2017 16:54 Ice Warning 30.6F - - 32F 55 0% - - 100% 1 mhos 0 - Yes - - -
12/13/2017 16:44 Ice Warning 30.9F - - 32F 70 0% - - 100% 1 mhos 0 - Yes - - -
12/13/2017 16:40 Ice Warning 30.9F - - 32F 65 0% - - 100% 1 mhos 0 - Yes - - -
12/13/2017 16:34 Ice Warning 30.9F - - 32F 55 0% - - 100% 1 mhos 0 - Yes - - -
12/13/2017 16:26 Ice Warning 30.9F - - 32F 60 0% - - 100% 1 mhos 0 - Yes - - -
12/13/2017 16:24 Ice Warning 30.9F - - 32F 65 0% - - 100% 1 mhos 0 - Yes - - -
12/13/2017 16:14 Ice Warning 30.9F - - 32F 95 0% - - 100% 1 mhos 0 - Yes - - -
12/13/2017 16:04 Ice Warning 31.1F - - 32F 50 0% - - 100% 1 mhos 0 - Yes - - -
Date/Time
(MST)
Sf
Temp Chem Water Layer Surface Precipitation
Sfc Pvt Sub Frz Factor Pct Dpth DpthThk IcePct Cond Salin FI Type Intens Accum Rate
12/13/2017 15:55 Ice Warning 31.1F - - 32F 90 0% - - 100% 1 mhos 0 - Yes - - -
12/13/2017 15:54 Ice Warning 31.3F - - 32F 90 0% - - 100% 2 mhos 0 - Yes - - -
12/13/2017 15:44 Ice Warning 31.3F - - 32F 80 0% - - 100% 2 mhos 0 - Yes - - -
12/13/2017 15:40 Ice Warning 31.3F - - 32F 60 0% - - 100% 2 mhos 0 - Yes - - -
12/13/2017 15:34 Ice Warning 30.9F - - 32F 75 0% - - 100% 2 mhos 0 - Yes - - -
12/13/2017 15:25 Ice Warning 30.9F - - 32F 95 0% - - 100% 2 mhos 0 - Yes - - -
12/13/2017 15:24 Ice Warning 30.9F - - 32F 95 0% - - 100% 2 mhos 0 - Yes - - -
12/13/2017 15:13 Ice Warning 30.9F - - 32F 90 0% - - 100% 1 mhos 0 - Yes - - -
12/13/2017 15:10 Ice Warning 30.9F - - 32F 95 0% - - 100% 1 mhos 0 - Yes - - -
12/13/2017 15:03 Ice Warning 30.9F - - 32F 85 0% - - 100% 1 mhos 0 - Yes - - -
12/13/2017 14:55 Ice Warning 31.1F - - 32F 95 0% - - 100% 4 mhos 0 - Yes - - -
12/13/2017 14:53 Ice Warning 31.1F - - 32F 95 0% - - 100% 4 mhos 0 - Yes - - -
12/13/2017 14:43 Ice Warning 31.1F - - 32F 95 0% - - 100% 4 mhos 0 - Yes - - -
12/13/2017 14:40 Ice Warning 31.1F - - 32F 95 0% - - 100% 3 mhos 0 - Yes - - -
12/13/2017 14:33 Ice Warning 31.3F - - 32F 90 0% - - 100% 3 mhos 0 - Yes - - -
Date/Time
(MST)
Sf
Temp Chem Water Layer Surface Precipitation
Sfc Pvt Sub Frz Factor Pct Dpth DpthThk IcePct Cond Salin FI Type Intens Accum Rate
12/13/2017 14:25 Ice Warning 31.5F - - 32F 60 0% - - 100% 3 mhos 0 - Yes - - -
12/13/2017 14:23 Ice Warning 31.5F - - 32F 60 0% - - 100% 3 mhos 0 - Yes - - -
12/13/2017 14:13 Ice Warning 31.5F - - 32F 65 0% - - 100% 3 mhos 0 - Yes - - -
12/13/2017 14:10 Ice Warning 31.5F - - 32F 65 0% - - 100% 3 mhos 0 - Yes - - -
12/13/2017 14:03 Ice Warning 31.5F - - 32F 80 0% - - 100% 3 mhos 0 - Yes - - -
12/13/2017 13:56 Ice Warning 31.3F - - 32F 75 0% - - 100% 1 mhos 0 - Yes - - -
12/13/2017 13:53 Ice Warning 31.1F - - 32F 75 0% - - 100% 1 mhos 0 - Yes - - -
12/13/2017 13:43 Ice Warning 31.1F - - 32F 50 0% - - 100% 1 mhos 0 - Yes - - -
12/13/2017 13:40 Ice Warning 31.1F - - 32F 70 0% - - 100% 0 mhos 0 - Yes - - -
12/13/2017 13:33 Ice Warning 30.9F - - 32F 80 0% - - 100% 0 mhos 0 - Yes - - -
12/13/2017 13:25 Ice Warning 30.7F - - 32F 65 0% - - 100% 0 mhos 0 - Yes - - -
12/13/2017 13:23 Ice Warning 30.7F - - 32F 70 0% - - 100% 0 mhos 0 - Yes - - -
12/13/2017 13:13 Ice Warning 30.2F - - 32F 60 0% - - 100% 0 mhos 0 - Yes - - -
12/13/2017 13:10 Ice Warning 30.2F - - 32F 60 0% - - 100% 0 mhos 0 - Yes - - -
12/13/2017 13:03 Ice Warning 30.0F - - 32F 80 0% - - 100% 0 mhos 0 - Yes - - -
Date/Time
(MST)
Sf
Temp Chem Water Layer Surface Precipitation
Sfc Pvt Sub Frz Factor Pct Dpth DpthThk IcePct Cond Salin FI Type Intens Accum Rate
12/13/2017 12:55 Ice Warning 29.5F - - 32F 70 0% - - 100% 0 mhos 0 - Yes - - -
12/13/2017 12:53 Ice Warning 29.3F - - 32F 70 0% - - 100% 0 mhos 0 - Yes - - -
12/13/2017 12:43 Ice Warning 29.1F - - 32F 80 0% - - 100% 0 mhos 0 - Yes - - -
12/13/2017 12:40 Ice Warning 29.1F - - 32F 85 0% - - 100% 0 mhos 0 - Yes - - -
12/13/2017 12:32 Ice Warning 28.9F - - 32F 75 0% - - 100% 0 mhos 0 - Yes - - -
12/13/2017 12:22 Ice Warning 28.6F - - 32F 85 0% - - 100% 0 mhos 0 - Yes - - -
12/13/2017 12:12 Ice Warning 28.8F - - 32F 75 0% - - 100% 0 mhos 0 - Yes - - -
12/13/2017 12:10 Ice Warning 28.6F - - 32F 75 0% - - 100% 0 mhos 0 - Yes - - -
12/13/2017 12:02 Ice Warning 28.4F - - 32F 95 0% - - 100% 0 mhos 0 - Yes - - -
12/13/2017 11:55 Ice Warning 28.6F - - 32F 70 0% - - 100% 0 mhos 0 - Yes - - -
12/13/2017 11:52 Ice Warning 28.8F - - 32F 60 0% - - 100% 0 mhos 0 - Yes - - -
12/13/2017 11:42 Ice Warning 28.9F - - 32F 25 0% - - 100% 0 mhos 0 - Yes - - -
12/13/2017 11:40 Ice Warning 28.9F - - 32F 25 0% - - 100% 0 mhos 0 - Yes - - -
12/13/2017 11:32 Ice Warning 29.1F - - 32F 40 0% - - 100% 0 mhos 0 - Yes - - -
12/13/2017 11:26 Ice Warning 29.1F - - 32F 55 0% - - 100% 0 mhos 0 - Yes - - -
Date/Time
(MST)
Sf
Temp Chem Water Layer Surface Precipitation
Sfc Pvt Sub Frz Factor Pct Dpth DpthThk IcePct Cond Salin FI Type Intens Accum Rate
12/13/2017 11:22 Ice Warning 29.1F - - 32F 55 0% - - 100% 0 mhos 0 - Yes - - -
12/13/2017 11:12 Ice Warning 29.7F - - 32F 30 0% - - 100% 0 mhos 0 - Yes - - -
12/13/2017 11:02 Ice Warning 29.1F - - 32F 15 0% - - 100% 0 mhos 0 - Yes - - -
12/13/2017 10:52 Ice Watch 28.4F - - - 15 - - - - 0 mhos 0 - None None - -
12/13/2017 10:42 Ice Watch 27.7F - - - 25 - - - - 0 mhos 0 - None None - -
12/13/2017 10:41 Ice Watch 27.7F - - - 25 - - - - 0 mhos 0 - None None - -
12/13/2017 10:32 Ice Watch 27.5F - - - 25 - - - - 0 mhos 0 - None None - -
12/13/2017 10:22 Ice Watch 27.3F - - - 25 - - - - 0 mhos 0 - None None - -
12/13/2017 10:11 Ice Watch 26.6F - - - 30 - - - - 0 mhos 0 - None None - -
12/13/2017 10:02 Ice Watch 26.4F - - - 40 - - - - 0 mhos 0 - None None - -
12/13/2017 09:56 Ice Watch 26.4F - - - 30 - - - - 0 mhos 0 - None None - -
12/13/2017 09:52 Ice Watch 26.2F - - - 30 - - - - 0 mhos 0 - None None - -
12/13/2017 09:42 Ice Watch 26.1F - - - 20 - - - - 0 mhos 0 - None None - -
12/13/2017 09:41 Ice Watch 26.1F - - - 20 - - - - 0 mhos 0 - None None - -
12/13/2017 09:31 Ice Watch 26.1F - - - 25 - - - - 0 mhos 0 - None None - -
Date/Time
(MST)
Sf
Temp Chem Water Layer Surface Precipitation
Sfc Pvt Sub Frz Factor Pct Dpth DpthThk IcePct Cond Salin FI Type Intens Accum Rate
12/13/2017 09:26 Ice Watch 25.7F - - - 25 - - - - 0 mhos 0 - None None - -
12/13/2017 09:21 Ice Watch 25.7F - - - 25 - - - - 0 mhos 0 - None None - -
12/13/2017 09:11 Ice Watch 25.3F - - - 25 - - - - 0 mhos 0 - None None - -
12/13/2017 09:11 Ice Watch 25.3F - - - 25 - - - - 0 mhos 0 - None None - -
12/13/2017 09:01 Ice Watch 25.0F - - - 30 - - - - 0 mhos 0 - None None - -
12/13/2017 08:56 Ice Watch 25.0F - - - 30 - - - - 0 mhos 0 - None None - -
12/13/2017 08:51 Ice Watch 25.0F - - - 30 - - - - 0 mhos 0 - None None - -
12/13/2017 08:41 Ice Watch 24.6F - - - 35 - - - - 0 mhos 0 - None None - -
12/13/2017 08:41 Ice Watch 24.6F - - - 35 - - - - 0 mhos 0 - None None - -
12/13/2017 08:31 Ice Watch 24.1F - - - 40 - - - - 0 mhos 0 - None None - -
12/13/2017 08:26 Ice Watch 24.1F - - - 45 - - - - 0 mhos 0 - None None - -
12/13/2017 08:21 Ice Watch 23.9F - - - 40 - - - - 0 mhos 0 - None None - -
12/13/2017 08:11 Ice Watch 23.7F - - - 65 - - - - 0 mhos 0 - None None - -
12/13/2017 08:11 Ice Watch 23.7F - - - 65 - - - - 0 mhos 0 - None None - -
12/13/2017 08:01 Ice Watch 23.5F - - - 30 - - - - 0 mhos 0 - None None - -
Date/Time
(MST)
Sf
Temp Chem Water Layer Surface Precipitation
Sfc Pvt Sub Frz Factor Pct Dpth DpthThk IcePct Cond Salin FI Type Intens Accum Rate
12/13/2017 07:56 Ice Watch 23.5F - - - 35 - - - - 0 mhos 0 - None None - -
12/13/2017 07:51 Ice Watch 23.4F - - - 35 - - - - 0 mhos 0 - None None - -
12/13/2017 07:41 Ice Watch 23.2F - - - 35 - - - - 0 mhos 0 - None None - -
12/13/2017 07:41 Ice Watch 23.2F - - - 35 - - - - 0 mhos 0 - None None - -
12/13/2017 07:31 Ice Watch 23.2F - - - 35 - - - - 0 mhos 0 - None None - -
12/13/2017 07:26 Ice Watch 23.2F - - - 30 - - - - 0 mhos 0 - None None - -
12/13/2017 07:21 Ice Watch 22.8F - - - 30 - - - - 0 mhos 0 - None None - -
12/13/2017 07:11 Ice Watch 22.8F - - - 30 - - - - 0 mhos 0 - None None - -
12/13/2017 07:10 Ice Watch 22.8F - - - 30 - - - - 0 mhos 0 - None None - -
12/13/2017 07:00 Ice Watch 22.6F - - - 30 - - - - 0 mhos 0 - None None - -
12/13/2017 06:56 Ice Watch 22.5F - - - 30 - - - - 0 mhos 0 - None None - -
12/13/2017 06:50 Ice Watch 22.5F - - - 30 - - - - 0 mhos 0 - None None - -
12/13/2017 06:41 Ice Watch 22.3F - - - 35 - - - - 0 mhos 0 - None None - -
12/13/2017 06:40 Ice Watch 22.3F - - - 35 - - - - 0 mhos 0 - None None - -
12/13/2017 06:30 Ice Watch 21.9F - - - 35 - - - - 0 mhos 0 - None None - -
Date/Time
(MST)
Sf
Temp Chem Water Layer Surface Precipitation
Sfc Pvt Sub Frz Factor Pct Dpth DpthThk IcePct Cond Salin FI Type Intens Accum Rate
12/13/2017 06:26 Ice Watch 21.9F - - - 40 - - - - 0 mhos 0 - None None - -
12/13/2017 06:20 Ice Watch 21.7F - - - 40 - - - - 0 mhos 0 - None None - -
12/13/2017 06:11 Ice Watch 21.4F - - - 30 - - - - 0 mhos 0 - None None - -
12/13/2017 06:10 Ice Watch 21.4F - - - 30 - - - - 0 mhos 0 - None None - -
12/13/2017 06:00 Ice Watch 21.2F - - - 35 - - - - 0 mhos 0 - None None - -
12/13/2017 05:56 Ice Watch 21.0F - - - 35 - - - - 0 mhos 0 - None None - -
12/13/2017 05:50 Ice Watch 21.0F - - - 35 - - - - 0 mhos 0 - None None - -
12/13/2017 05:41 Ice Watch 20.3F - - - 40 - - - - 0 mhos 0 - None None - -
12/13/2017 05:40 Ice Watch 20.3F - - - 40 - - - - 0 mhos 0 - None None - -
12/13/2017 05:30 Ice Watch 20.3F - - - 45 - - - - 0 mhos 0 - None None - -
12/13/2017 05:26 Ice Watch 20.3F - - - 55 - - - - 0 mhos 0 - None None - -
12/13/2017 05:20 Ice Watch 19.9F - - - 50 - - - - 0 mhos 0 - None None - -
12/13/2017 05:11 Ice Watch 19.8F - - - 50 - - - - 0 mhos 0 - None None - -
12/13/2017 05:10 Ice Watch 19.8F - - - 50 - - - - 0 mhos 0 - None None - -
12/13/2017 05:00 Ice Watch 19.9F - - - 40 - - - - 0 mhos 0 - None None - -
Date/Time
(MST)
Sf
Temp Chem Water Layer Surface Precipitation
Sfc Pvt Sub Frz Factor Pct Dpth DpthThk IcePct Cond Salin FI Type Intens Accum Rate
12/13/2017 04:56 Ice Watch 19.9F - - - 40 - - - - 0 mhos 0 - None None - -
12/13/2017 04:50 Ice Watch 20.1F - - - 35 - - - - 0 mhos 0 - None None - -
12/13/2017 04:41 Ice Watch 20.3F - - - 40 - - - - 0 mhos 0 - None None - -
12/13/2017 04:40 Ice Watch 20.3F - - - 40 - - - - 0 mhos 0 - None None - -
12/13/2017 04:30 Ice Watch 20.1F - - - 40 - - - - 0 mhos 0 - None None - -
12/13/2017 04:25 Ice Watch 19.9F - - - 40 - - - - 0 mhos 0 - None None - -
12/13/2017 04:20 Ice Watch 19.4F - - - 40 - - - - 0 mhos 0 - None None - -
12/13/2017 04:11 Ice Watch 19.0F - - - 40 - - - - 0 mhos 0 - None None - -
12/13/2017 04:10 Ice Watch 19.0F - - - 40 - - - - 0 mhos 0 - None None - -
12/13/2017 04:00 Ice Watch 19.2F - - - 40 - - - - 0 mhos 0 - None None - -
12/13/2017 03:56 Ice Watch 19.2F - - - 40 - - - - 0 mhos 0 - None None - -
12/13/2017 03:50 Ice Watch 19.2F - - - 40 - - - - 0 mhos 0 - None None - -
12/13/2017 03:41 Ice Watch 19.2F - - - 45 - - - - 0 mhos 0 - None None - -
12/13/2017 03:40 Ice Watch 19.2F - - - 45 - - - - 0 mhos 0 - None None - -
12/13/2017 03:30 Ice Watch 19.8F - - - 45 - - - - 0 mhos 0 - None None - -
Date/Time
(MST)
Sf
Temp Chem Water Layer Surface Precipitation
Sfc Pvt Sub Frz Factor Pct Dpth DpthThk IcePct Cond Salin FI Type Intens Accum Rate
12/13/2017 03:25 Ice Watch 19.6F - - - 50 - - - - 0 mhos 0 - None None - -
12/13/2017 03:20 Ice Watch 19.9F - - - 50 - - - - 0 mhos 0 - None None - -
12/13/2017 03:11 Ice Watch 19.9F - - - 45 - - - - 0 mhos 0 - None None - -
12/13/2017 03:10 Ice Watch 19.9F - - - 50 - - - - 0 mhos 0 - None None - -
12/13/2017 03:00 Ice Watch 20.1F - - - 55 - - - - 0 mhos 0 - None None - -
12/13/2017 02:56 Ice Watch 20.3F - - - 55 - - - - 0 mhos 0 - None None - -
12/13/2017 02:50 Ice Watch 20.5F - - - 55 - - - - 0 mhos 0 - None None - -
12/13/2017 02:41 Ice Watch 20.5F - - - 60 - - - - 0 mhos 0 - None None - -
12/13/2017 02:40 Ice Watch 20.7F - - - 60 - - - - 0 mhos 0 - None None - -
12/13/2017 02:30 Ice Watch 21.0F - - - 65 - - - - 0 mhos 0 - None None - -
12/13/2017 02:26 Ice Watch 20.8F - - - 55 - - - - 0 mhos 0 - None None - -
12/13/2017 02:20 Ice Watch 21.2F - - - 55 - - - - 0 mhos 0 - None None - -
12/13/2017 02:11 Ice Watch 21.2F - - - 60 - - - - 0 mhos 0 - None None - -
12/13/2017 02:10 Ice Watch 21.4F - - - 60 - - - - 0 mhos 0 - None None - -
12/13/2017 02:00 Ice Watch 21.4F - - - 60 - - - - 0 mhos 0 - None None - -
Date/Time
(MST)
Sf
Temp Chem Water Layer Surface Precipitation
Sfc Pvt Sub Frz Factor Pct Dpth DpthThk IcePct Cond Salin FI Type Intens Accum Rate
12/13/2017 01:56 Ice Watch 21.6F - - - 60 - - - - 0 mhos 0 - None None - -
12/13/2017 01:49 Ice Watch 21.7F - - - 60 - - - - 0 mhos 0 - None None - -
12/13/2017 01:41 Ice Watch 22.1F - - - 60 - - - - 0 mhos 0 - None None - -
12/13/2017 01:39 Ice Watch 22.3F - - - 60 - - - - 0 mhos 0 - None None - -
12/13/2017 01:29 Ice Watch 22.8F - - - 55 - - - - 0 mhos 0 - None None - -
12/13/2017 01:26 Ice Watch 22.6F - - - 55 - - - - 0 mhos 0 - None None - -
12/13/2017 01:19 Frost 23.2F - - - - - - - - 0 mhos 0 - None None - -
12/13/2017 01:11 Ice Watch 23.4F - - - 55 - - - - 0 mhos 0 - None None - -
12/13/2017 01:09 Ice Watch 23.4F - - - 55 - - - - 0 mhos 0 - None None - -
12/13/2017 00:59 Ice Watch 23.9F - - - 55 - - - - 0 mhos 0 - None None - -
12/13/2017 00:55 Ice Watch 24.1F - - - 55 - - - - 0 mhos 0 - None None - -
12/13/2017 00:49 Ice Watch 24.3F - - - 55 - - - - 0 mhos 0 - None None - -
12/13/2017 00:40 Ice Watch 24.4F - - - 55 - - - - 0 mhos 0 - None None - -
12/13/2017 00:39 Ice Watch 24.4F - - - 55 - - - - 0 mhos 0 - None None - -
12/13/2017 00:29 Ice Watch 24.6F - - - 60 - - - - 0 mhos 0 - None None - -
Date/Time
(MST)
Sf
Temp Chem Water Layer Surface Precipitation
Sfc Pvt Sub Frz Factor Pct Dpth DpthThk IcePct Cond Salin FI Type Intens Accum Rate
12/13/2017 00:25 Ice Watch 24.6F - - - 55 - - - - 0 mhos 0 - None None - -
12/13/2017 00:19 Ice Watch 25.0F - - - 55 - - - - 0 mhos 0 - None None - -
12/13/2017 00:10 Ice Watch 25.2F - - - 55 - - - - 0 mhos 0 - None None - -
12/13/2017 00:09 Ice Watch 25.3F - - - 55 - - - - 0 mhos 0 - None None - -
12/12/2017 23:59 Ice Watch 26.1F - - - 60 - - - - 0 mhos 0 - None None - -
12/12/2017 23:55 Ice Watch 26.1F - - - 60 - - - - 0 mhos 0 - None None - -
12/12/2017 23:49 Ice Watch 26.2F - - - 60 - - - - 0 mhos 0 - None None - -
12/12/2017 23:40 Ice Watch 26.8F - - - 60 - - - - 0 mhos 0 - None None - -
12/12/2017 23:39 Ice Watch 26.8F - - - 60 - - - - 0 mhos 0 - None None - -
12/12/2017 23:29 Ice Watch 27.0F - - - 55 - - - - 0 mhos 0 - None None - -
12/12/2017 23:26 Ice Watch 27.1F - - - 50 - - - - 0 mhos 0 - None None - -
12/12/2017 23:19 Ice Watch 27.0F - - - 50 - - - - 0 mhos 0 - None None - -
12/12/2017 23:10 Ice Watch 27.1F - - - 55 - - - - 0 mhos 0 - None None - -
12/12/2017 23:09 Ice Watch 27.0F - - - 55 - - - - 0 mhos 0 - None None - -
12/12/2017 22:59 Ice Watch 27.1F - - - 55 - - - - 0 mhos 0 - None None - -
Date/Time
(MST)
Sf
Temp Chem Water Layer Surface Precipitation
Sfc Pvt Sub Frz Factor Pct Dpth DpthThk IcePct Cond Salin FI Type Intens Accum Rate
12/12/2017 22:55 Ice Watch 27.3F - - - 55 - - - - 0 mhos 0 - None None - -
12/12/2017 22:49 Ice Watch 27.1F - - - 55 - - - - 0 mhos 0 - None None - -
12/12/2017 22:39 Ice Watch 27.3F - - - 55 - - - - 0 mhos 0 - None None - -
12/12/2017 22:29 Ice Watch 27.1F - - - 55 - - - - 0 mhos 0 - None None - -
12/12/2017 22:19 Ice Watch 27.0F - - - 55 - - - - 0 mhos 0 - None None - -
12/12/2017 22:11 Ice Watch 27.1F - - - 55 - - - - 0 mhos 0 - None None - -
12/12/2017 22:08 Ice Watch 27.1F - - - 55 - - - - 0 mhos 0 - None None - -
12/12/2017 21:58 Ice Watch 27.3F - - - 55 - - - - 0 mhos 0 - None None - -
12/12/2017 21:55 Ice Watch 27.3F - - - 55 - - - - 0 mhos 0 - None None - -
12/12/2017 21:48 Ice Watch 27.1F - - - 55 - - - - 0 mhos 0 - None None - -
12/12/2017 21:41 Ice Watch 27.0F - - - 50 - - - - 0 mhos 0 - None None - -
12/12/2017 21:38 Ice Watch 27.0F - - - 50 - - - - 0 mhos 0 - None None - -
12/12/2017 21:28 Ice Watch 27.3F - - - 50 - - - - 0 mhos 0 - None None - -
12/12/2017 21:26 Ice Watch 27.3F - - - 60 - - - - 0 mhos 0 - None None - -
12/12/2017 21:18 Ice Watch 28.0F - - - 45 - - - - 0 mhos 0 - None None - -
Change End Date:

Copyright © 1998-2015 Vaisala, Inc.
All Rights Reserved
Send comments about the data to:
SCAN Web ® is a registered trademark of Vaisala, Inc.
SCAN Web Version 6.0